RH
81 78 77 77 70 66 66 62 58 57 56 56 50 42 39 41 42 40 39 35 28 24 24 25 25 25 28 33 37 40 38 36 38 38 42 48 48 51 51 34 22 25 26 25 28 30 30 30 30 32 33 33 34 33 31 30 31 32 34 35 36 37 38 39 37 35 34 35 38 38 36 35 34 37
78 76 74 73 71 68 67 63 60 59 60 57 47 41 42 44 43 40 37 36 32 27 25 24 25 26 28 33 37 38 35 36 38 36 39 42 43 49 47 34 31 35 33 30 28 28 30 30 30 32 33 33 33 32 30 31 32 33 34 35 37 38 38 39 38 35 34 36 39 39 37 36 34 36
76 75 73 72 72 70 68 64 62 62 60 52 45 47 50 47 44 41 37 35 33 30 28 26 25 26 29 31 34 34 32 35 36 33 37 42 43 44 40 36 41 42 38 37 33 29 29 30 31 32 32 33 33 31 30 31 32 33 35 36 38 38 38 39 37 35 35 38 40 39 39 38 34 36
72 72 72 73 73 72 67 62 60 58 54 51 52 53 50 45 43 41 39 36 35 34 34 32 28 27 30 30 30 31 32 32 34 33 35 40 41 41 39 40 44 43 39 40 37 33 30 29 31 32 33 35 33 31 31 32 33 34 36 37 38 38 38 38 36 34 36 39 40 40 40 39 36 36
68 69 69 68 71 69 59 52 53 54 53 55 56 49 41 39 40 41 40 35 36 42 43 37 32 31 32 29 27 29 30 32 35 35 34 38 42 43 40 39 41 43 41 40 40 35 29 28 31 33 35 36 34 31 31 31 33 35 36 37 37 38 38 37 36 35 37 40 40 41 41 39 37 36
63 62 60 57 59 57 50 50 54 55 53 50 46 40 37 37 37 39 40 32 34 47 50 42 37 38 36 30 26 27 29 32 35 32 30 33 37 37 35 35 38 41 41 41 40 33 25 27 32 34 36 35 32 31 30 31 33 33 34 36 37 37 37 37 36 36 38 41 40 41 41 40 39 36
56 57 58 57 52 49 53 57 55 49 45 41 38 35 34 36 35 36 39 32 29 42 52 47 40 41 41 34 27 27 29 32 33 28 25 28 30 31 33 36 39 41 41 41 38 30 24 28 34 36 35 33 30 30 29 30 32 32 34 36 35 35 36 37 38 37 39 41 40 41 41 40 40 37
54 56 63 63 57 56 60 59 52 46 43 41 36 32 32 34 33 35 38 33 28 37 51 48 35 34 40 36 29 26 27 30 32 29 28 29 29 29 32 34 36 39 40 38 37 35 30 31 38 39 34 30 29 29 29 31 34 36 37 36 33 34 36 38 38 39 40 41 40 41 41 40 40 39
56 56 63 64 60 62 61 57 52 47 46 44 36 32 33 33 33 38 38 33 33 40 46 42 33 31 37 35 28 25 24 25 28 30 34 36 33 31 34 35 35 37 38 38 42 44 39 37 40 39 34 32 32 33 34 35 39 42 39 33 31 32 35 37 39 40 40 41 41 41 41 42 40 39
59 58 62 60 60 61 58 56 53 48 48 45 35 33 34 30 32 41 40 37 40 39 35 35 34 33 36 34 28 24 21 22 25 27 31 37 36 36 40 41 38 37 38 41 45 45 42 40 40 38 36 36 37 38 37 38 41 42 35 30 28 29 33 36 39 40 40 40 41 41 42 42 41 40
60 59 59 57 59 59 55 55 53 49 49 43 35 36 33 28 35 45 42 39 38 34 30 33 36 35 34 32 28 25 22 23 26 26 26 30 30 33 39 40 37 36 37 39 40 39 38 38 39 40 39 37 39 40 37 38 40 37 33 31 29 28 32 37 39 39 41 41 41 42 42 42 42 42
58 57 55 55 57 56 52 54 53 51 49 42 38 38 33 34 45 46 38 33 33 32 32 34 35 33 32 30 28 28 28 26 27 29 31 31 29 30 34 35 36 37 38 37 36 36 38 39 40 42 39 37 41 41 37 37 38 34 35 35 31 29 33 38 39 40 40 41 41 42 43 43 43 42
56 55 53 53 56 54 51 52 52 50 46 40 38 39 40 45 46 37 29 29 31 32 32 33 34 31 29 29 28 30 33 30 30 36 39 37 34 34 36 35 34 37 39 39 38 36 37 38 40 40 38 35 38 38 36 37 39 37 36 36 32 31 35 38 40 40 40 41 41 43 44 45 43 38
56 55 53 53 55 53 51 51 51 49 43 36 38 44 46 45 37 30 29 30 31 32 31 30 30 28 28 28 27 30 34 34 35 40 42 41 40 39 38 37 35 38 42 44 43 39 36 37 39 39 37 34 34 36 35 36 38 36 35 35 33 32 35 38 40 41 41 42 42 45 48 46 40 36
57 55 53 55 56 53 51 50 49 47 40 35 41 48 44 35 31 32 34 33 30 30 29 27 27 27 27 27 28 31 34 37 39 39 39 40 40 38 38 37 35 38 45 48 46 41 38 38 39 39 39 37 35 36 35 34 35 35 34 34 33 33 35 37 39 40 41 43 44 46 49 47 41 40
58 56 54 57 59 55 51 50 48 45 39 40 45 44 35 29 32 38 39 37 35 30 26 25 27 28 25 26 30 31 32 38 41 41 41 41 41 42 42 39 37 39 45 48 45 42 40 38 37 36 38 37 36 37 37 35 35 34 33 34 34 35 35 35 38 40 40 42 44 45 47 47 46 47
58 56 55 59 61 58 53 52 51 45 40 41 41 35 30 32 37 39 38 40 42 38 31 27 27 28 26 26 30 33 34 38 41 41 41 40 42 45 45 44 43 44 44 44 43 44 43 39 35 34 33 34 36 38 38 37 36 36 36 35 35 35 34 35 38 39 40 41 43 44 45 46 47 50
57 56 55 58 61 59 55 52 50 46 41 34 28 27 31 35 38 37 36 38 41 39 36 32 30 29 28 28 32 37 40 42 41 40 41 42 45 47 47 47 47 45 44 44 46 47 46 40 35 33 33 34 35 36 37 37 38 39 37 35 34 35 35 36 37 38 39 40 41 42 44 45 47 49
56 55 55 56 57 56 54 49 46 47 44 36 31 33 36 36 36 32 28 32 39 39 37 37 35 33 32 33 37 44 47 45 42 41 45 49 49 47 46 45 44 42 42 44 48 49 46 42 37 34 34 34 34 34 35 36 36 36 35 34 34 34 34 35 37 37 38 39 40 41 42 43 45 48
56 54 55 55 54 55 53 47 43 46 47 43 40 42 41 40 41 35 26 27 37 39 37 37 40 42 39 36 40 49 51 46 45 46 47 47 46 44 43 42 41 39 36 39 46 48 45 42 39 35 33 34 35 35 36 35 35 35 33 32 32 33 33 35 36 36 37 38 38 39 41 42 44 47
55 54 55 53 52 55 54 47 43 46 48 45 43 44 44 44 45 45 40 31 29 31 31 31 36 42 41 38 41 48 48 45 46 46 42 40 40 40 39 37 37 35 31 33 38 40 40 39 38 35 34 35 36 35 33 33 34 33 32 31 32 32 33 34 34 34 36 36 37 38 39 41 43 46
54 53 54 52 50 55 56 48 44 48 48 46 45 45 48 49 45 48 52 44 31 26 27 28 30 37 41 39 37 39 40 38 37 36 36 37 37 36 34 33 34 34 32 34 37 37 38 40 38 36 35 35 34 33 32 33 33 33 32 31 32 31 32 33 34 33 34 34 36 37 39 41 44 46
54 51 54 53 47 52 56 48 44 47 47 48 51 48 49 51 47 47 55 56 44 31 26 28 29 34 37 33 29 30 32 30 27 28 35 40 37 35 33 33 35 33 32 40 44 39 38 40 38 36 36 35 35 34 33 34 34 33 32 31 31 31 31 33 33 31 32 33 35 37 39 41 43 45
52 49 53 52 46 52 58 50 45 45 42 47 56 53 48 50 48 46 51 56 49 37 30 30 33 36 38 35 34 37 38 34 27 26 34 42 42 37 33 33 35 32 32 45 50 43 40 41 38 36 37 38 37 36 35 36 35 34 32 32 32 31 32 33 31 29 30 32 34 37 40 42 42 44
48 46 51 51 49 56 62 55 50 46 37 41 55 55 48 49 50 46 47 50 47 40 35 34 35 39 43 43 46 50 49 48 44 36 34 39 43 42 36 34 35 33 35 48 52 45 43 43 40 40 42 41 39 38 36 37 36 34 32 31 31 32 33 32 29 27 28 32 35 38 39 41 42 44
45 44 50 54 53 57 60 54 51 46 32 31 48 57 52 51 51 46 44 47 47 42 39 38 36 37 41 43 47 51 51 52 57 56 51 46 44 43 38 36 37 37 39 47 49 45 43 43 42 44 44 42 41 40 38 37 35 33 31 30 31 32 32 31 28 26 28 32 37 39 38 39 42 43
42 43 53 60 59 59 58 52 49 46 33 25 41 58 58 53 51 47 42 44 47 43 38 37 36 36 37 38 41 46 47 46 49 54 54 51 49 47 43 41 42 41 41 43 43 41 42 41 41 41 41 41 42 39 37 36 35 33 31 30 31 31 30 30 29 28 30 34 38 39 36 37 42 42
44 49 57 59 59 57 50 40 36 38 33 27 36 54 60 57 54 50 41 39 46 45 38 34 34 34 34 34 35 37 38 38 39 40 40 40 43 46 46 46 47 47 46 45 44 43 42 40 40 41 41 42 42 40 39 38 36 34 33 32 32 31 29 32 32 30 31 35 38 38 35 38 43 42
49 56 58 57 56 49 38 32 34 35 34 31 33 44 54 57 57 53 43 37 40 42 38 33 31 29 30 33 35 34 32 33 35 36 35 35 40 45 45 45 47 48 48 47 46 45 44 44 43 41 39 40 41 40 39 38 36 36 35 32 31 30 30 32 33 31 33 36 37 37 35 37 42 42
55 59 60 58 54 42 33 36 39 36 36 40 39 38 44 51 55 52 44 38 35 35 35 34 32 31 31 33 35 34 32 33 36 37 37 37 40 42 41 41 42 43 46 48 48 47 47 47 43 36 33 38 42 42 41 39 36 37 35 29 28 30 30 32 32 32 34 37 37 36 35 36 39 40
56 58 57 54 49 41 39 41 38 35 40 47 47 46 47 51 54 49 41 36 33 31 32 34 34 33 33 33 32 30 30 33 38 40 39 35 32 30 29 32 35 38 41 43 44 45 45 43 38 34 35 39 41 42 43 41 37 36 34 28 27 30 29 31 33 33 35 37 36 35 35 35 37 39
55 53 51 54 58 57 56 54 48 48 52 53 54 56 54 53 54 49 38 32 31 31 33 34 33 34 34 32 30 29 32 35 38 39 36 31 26 22 22 25 29 31 32 33 35 37 39 39 37 38 40 41 40 41 42 40 38 37 33 27 28 30 29 31 34 34 35 36 35 35 36 35 36 39
61 58 55 63 69 67 65 63 58 56 59 58 58 59 56 52 51 46 36 29 29 32 34 32 33 37 37 35 35 35 36 38 39 36 31 27 24 22 22 24 25 26 26 27 29 30 32 35 39 40 39 39 42 42 42 40 36 35 32 29 29 30 30 32 34 35 36 35 33 35 37 36 35 38
66 68 63 65 68 65 64 64 59 56 57 56 56 56 53 50 47 42 33 28 29 31 32 33 37 40 40 39 41 41 40 38 35 30 26 24 24 25 26 27 27 25 24 25 27 28 29 32 37 39 37 38 39 39 40 40 36 33 32 31 31 31 31 32 35 36 37 36 34 36 38 36 35 37
66 71 66 63 63 60 58 60 57 54 53 52 52 52 52 49 46 40 33 29 28 31 33 37 42 44 44 43 43 41 37 35 30 25 23 24 24 25 27 29 28 25 24 25 27 28 28 28 30 33 34 35 35 33 34 37 36 34 32 31 30 31 32 33 35 36 36 36 35 37 38 37 35 37
66 71 67 62 59 54 52 53 52 50 49 49 51 52 52 51 47 41 35 32 32 35 38 42 46 47 46 45 43 39 36 33 30 28 27 26 26 27 28 29 27 24 23 25 26 28 29 27 26 26 26 29 31 28 28 34 37 35 33 32 31 31 33 35 35 35 34 36 36 38 39 37 35 38
67 69 63 56 52 49 47 48 47 46 47 50 51 51 49 48 46 42 39 38 39 40 44 48 50 49 47 45 43 42 40 37 35 33 32 30 30 29 29 29 28 25 24 25 26 27 27 26 26 25 25 29 30 26 28 38 42 37 34 32 30 32 35 35 33 33 34 36 36 38 40 37 35 39
66 63 55 49 47 47 46 46 47 48 48 49 49 48 46 44 44 44 43 42 42 45 49 50 50 49 47 46 45 45 43 42 40 38 36 34 33 31 29 27 26 25 26 28 27 27 27 27 27 27 27 28 28 25 25 32 36 35 33 32 32 34 36 34 32 33 36 37 38 40 40 37 36 39
63 58 52 47 46 46 46 46 47 48 48 47 47 47 45 43 43 44 45 46 46 49 52 51 47 46 47 47 46 46 46 45 44 42 39 37 36 34 32 29 26 25 27 27 27 28 28 27 26 26 25 26 29 31 30 30 31 31 32 33 34 35 35 34 34 35 36 38 41 41 39 37 38 39
62 57 52 47 46 46 46 47 47 47 48 48 47 47 46 45 44 44 45 47 49 51 52 49 46 46 48 48 46 46 46 47 47 46 44 41 39 38 36 33 31 28 26 26 28 28 27 26 28 30 30 31 34 36 35 33 31 30 31 34 35 35 36 37 37 37 38 41 42 40 38 38 39 39
64 58 50 46 46 47 47 47 47 47 48 50 50 49 48 48 48 48 47 48 49 51 51 49 48 48 48 47 47 48 47 46 46 47 47 46 44 41 40 39 37 32 28 27 29 29 29 31 36 36 34 34 36 34 32 31 30 28 29 33 36 36 35 36 36 37 40 43 43 40 39 40 40 39
65 57 50 46 46 47 48 48 48 49 50 51 51 51 51 52 51 51 50 50 49 48 48 49 50 50 49 49 50 50 50 47 45 45 47 48 47 45 44 45 44 40 34 29 27 27 28 33 36 35 33 33 33 32 30 29 29 27 27 30 35 38 37 34 34 35 37 40 42 42 43 44 42 40
65 59 54 51 50 49 49 49 51 53 54 52 52 53 55 55 55 54 54 53 50 47 47 49 50 50 50 51 52 52 51 49 47 45 46 47 46 45 47 48 48 45 40 34 28 25 25 28 33 35 36 36 33 32 31 30 29 29 27 27 32 36 36 34 35 36 36 37 40 43 46 47 44 42
66 63 59 56 54 53 52 54 57 58 57 55 53 53 55 55 56 57 57 55 51 46 46 50 52 51 50 50 50 51 51 49 47 46 47 46 45 46 48 49 47 43 39 35 31 27 25 26 30 31 32 33 33 33 31 30 30 29 28 27 30 33 32 32 36 40 39 37 37 40 44 46 45 44
67 67 65 62 58 56 57 60 62 61 59 58 56 54 54 54 54 55 56 55 51 48 48 51 53 51 48 47 48 49 49 48 47 46 46 46 46 47 49 50 48 44 39 35 32 30 27 26 27 28 29 31 34 34 32 31 31 30 29 29 31 32 31 30 33 35 35 36 38 40 42 43 43 44
Wind_Speed
17 17 16 16 15 15 15 15 15 15 13 14 17 16 13 10 8 5 6 6 8 12 13 12 11 12 12 11 10 10 10 13 12 7 4 6 9 11 10 9 7 4 6 7 9 10 11 12 13 14 16 17 17 17 16 16 16 17 19 21 23 25 27 27 27 27 29 31 33 33 34 34 34 34
15 16 16 16 16 16 15 15 15 15 15 15 17 15 12 12 11 8 6 5 9 12 13 11 11 13 13 11 10 9 9 13 12 7 6 7 9 12 12 10 7 5 6 7 9 11 11 12 13 14 16 17 16 16 16 16 17 18 20 22 24 26 27 28 27 27 29 32 33 34 34 34 34 34
14 14 15 16 16 16 15 15 15 16 16 16 16 13 12 13 12 11 9 5 6 10 12 11 9 12 13 10 10 8 8 11 10 6 7 8 10 13 15 13 10 7 7 7 9 11 12 13 14 15 16 16 16 15 16 16 17 19 21 23 25 26 28 28 27 27 29 32 33 35 35 34 34 34
15 15 16 16 16 16 16 16 16 16 16 16 14 13 13 13 12 12 11 7 4 6 9 10 9 10 12 10 10 9 8 10 9 6 7 10 11 12 13 14 12 9 8 7 9 13 14 13 14 15 16 15 15 15 16 17 18 20 22 23 24 26 28 28 27 27 29 32 34 35 36 35 34 34
16 17 18 18 18 18 18 17 16 17 16 15 15 14 14 14 13 12 12 10 6 6 7 9 9 11 11 10 10 10 9 9 9 6 6 9 10 9 9 11 12 10 8 7 9 14 15 13 14 15 15 15 15 15 16 17 19 20 21 22 24 26 28 28 27 28 29 32 34 35 36 36 34 34
18 18 19 19 19 19 18 17 16 16 16 15 15 15 14 13 13 13 13 12 9 8 9 10 10 10 10 10 10 11 9 8 7 7 7 8 8 8 6 7 9 10 8 7 10 15 14 12 13 14 14 15 15 14 15 16 18 19 19 21 24 26 28 29 28 28 29 32 34 36 36 36 35 34
18 18 19 19 19 19 19 18 16 15 15 15 15 15 15 13 13 13 14 13 12 10 11 11 10 10 10 10 10 10 9 7 7 7 8 7 7 8 7 6 9 11 9 8 12 14 11 11 11 12 14 14 13 13 13 14 16 16 18 21 24 27 28 29 29 29 30 32 34 36 37 37 35 35
19 19 20 20 19 19 18 18 17 15 14 14 14 14 14 14 13 12 13 14 12 9 10 10 10 10 10 10 10 9 9 8 8 7 7 7 7 7 7 7 9 11 10 10 14 12 9 9 10 11 13 13 11 10 11 13 14 15 17 21 24 27 28 29 30 29 30 32 35 36 37 38 37 36
20 20 20 20 18 18 18 17 17 15 15 14 13 13 13 13 13 12 12 13 11 9 9 9 9 9 9 10 10 9 9 8 9 9 9 8 7 7 7 7 8 10 11 12 13 11 10 10 10 11 13 13 11 10 11 13 14 14 16 21 25 28 29 30 30 30 30 32 35 36 38 38 38 37
20 19 19 19 18 19 18 18 17 16 16 15 14 14 14 13 13 12 11 12 11 9 9 9 9 10 10 10 10 9 9 7 7 8 8 9 9 8 8 7 7 9 10 10 10 11 12 12 11 13 15 16 14 12 13 14 12 12 16 22 27 28 30 30 30 30 31 33 35 36 38 39 38 37
19 19 18 19 19 19 18 18 17 17 16 16 15 15 14 13 13 13 12 11 11 11 11 10 10 11 11 11 9 8 8 7 6 6 7 7 8 7 7 8 8 8 9 9 11 12 12 13 14 15 16 18 17 14 14 13 9 10 16 23 27 29 29 30 30 30 31 33 35 36 38 38 37 37
18 18 18 18 19 19 18 18 17 17 17 16 15 15 14 13 13 13 12 12 12 12 11 10 11 11 11 10 9 8 8 7 8 8 7 7 6 6 7 8 9 8 8 8 11 12 12 14 15 14 16 19 16 13 14 12 7 9 18 23 27 29 28 29 29 29 30 32 34 35 36 37 37 37
17 17 18 18 18 18 18 18 18 17 17 17 16 16 15 14 14 14 13 13 12 12 12 11 11 11 11 11 10 9 9 8 7 6 6 6 7 7 8 8 8 8 7 8 10 11 12 13 13 13 15 15 11 11 13 10 8 13 21 23 27 28 27 28 28 29 31 32 33 34 36 36 36 37
17 17 17 16 17 19 19 19 19 19 19 18 17 16 16 16 15 14 13 13 13 12 12 12 12 11 10 11 11 10 9 8 6 5 6 7 7 6 7 8 7 6 6 7 9 11 13 12 12 13 13 12 11 11 12 11 13 19 21 22 26 28 27 27 28 29 31 32 33 34 35 36 35 36
17 18 17 16 18 21 21 21 22 21 21 20 18 18 18 18 17 15 14 13 13 12 12 11 11 11 10 10 10 10 9 8 7 6 6 6 6 6 6 6 5 3 3 5 10 13 12 12 13 13 11 12 13 11 12 16 18 19 19 21 25 28 27 27 28 30 31 32 33 33 34 36 35 36
18 18 18 17 18 21 22 22 23 23 23 21 19 19 20 20 18 16 15 13 11 11 11 11 11 11 10 10 10 9 9 8 7 7 7 6 6 6 6 6 6 4 2 6 10 12 12 12 13 13 12 13 12 12 14 17 17 18 19 21 24 26 26 26 27 29 32 33 33 33 34 36 36 38
18 19 20 18 17 20 22 22 22 23 24 22 20 20 20 20 19 17 16 14 10 9 10 10 10 10 9 9 10 10 9 7 7 7 7 7 7 7 6 6 7 7 7 9 11 12 12 12 12 13 13 13 12 13 15 16 18 20 20 20 24 25 24 25 25 28 33 34 32 33 35 37 39 38
19 19 20 19 18 20 23 23 20 21 23 22 21 20 18 18 19 19 19 16 12 11 9 7 9 10 9 8 8 9 9 8 7 7 6 6 6 6 7 8 10 11 12 11 11 11 11 11 12 14 14 13 13 14 15 17 20 19 18 22 25 23 23 24 24 28 32 31 31 34 35 37 39 37
19 19 20 19 18 20 23 24 22 21 21 21 20 17 14 13 16 19 20 18 14 11 8 6 6 8 9 8 7 8 9 8 7 6 5 5 6 7 8 10 11 12 12 11 11 11 11 10 12 14 14 14 15 16 17 18 16 15 18 24 23 20 23 24 24 29 31 28 30 34 34 37 38 35
19 20 20 19 19 19 22 25 25 22 20 19 18 16 14 12 12 15 18 19 18 14 12 10 7 8 11 12 10 10 10 8 7 6 6 7 7 8 9 9 9 9 8 7 9 10 11 10 12 15 15 15 16 17 17 15 13 15 21 22 19 20 23 23 25 30 29 26 31 33 34 37 37 33
19 20 20 20 19 18 21 25 27 24 20 19 18 16 15 14 12 12 15 19 21 20 17 16 13 10 12 14 13 13 12 11 9 6 6 7 8 8 9 8 8 7 8 7 8 10 11 10 13 15 15 15 16 16 15 13 15 19 20 18 17 20 22 22 27 28 25 26 31 32 34 36 34 30
18 20 21 21 19 18 21 25 28 27 21 18 17 17 15 14 14 13 14 17 21 22 20 19 17 15 14 15 14 14 14 15 12 10 8 7 8 9 9 9 8 9 9 7 5 6 10 11 12 14 16 16 15 14 13 14 17 19 18 17 18 20 21 23 26 25 23 27 29 31 33 32 31 29
17 18 21 23 20 18 20 25 28 29 24 17 16 17 15 15 15 14 14 15 18 22 22 20 18 17 16 16 16 15 15 17 16 15 13 10 10 10 10 9 8 8 7 2 1 5 10 11 12 13 14 13 13 15 15 16 18 18 17 17 19 20 21 23 25 23 24 26 28 31 31 28 30 31
18 17 19 24 24 19 19 24 27 30 26 17 13 15 15 14 15 15 14 14 15 19 21 18 17 16 15 15 15 15 16 17 18 18 16 14 12 11 11 10 9 9 8 2 2 7 10 11 13 13 12 11 12 15 17 18 18 18 17 17 19 20 21 22 22 22 24 26 27 30 28 24 29 31
18 18 17 23 27 22 19 22 24 28 28 21 14 13 15 15 15 14 14 15 14 15 16 16 16 15 15 15 15 15 15 17 18 19 19 18 16 14 13 11 11 11 9 4 4 8 10 12 13 13 12 12 13 16 18 18 18 17 17 18 19 20 20 21 23 23 25 25 26 29 26 22 28 30
18 19 17 21 28 26 20 19 21 23 28 25 18 14 15 16 15 14 13 14 14 14 15 15 16 16 15 15 15 15 15 15 16 16 17 17 17 17 15 14 13 12 11 9 9 10 10 12 12 12 13 14 15 16 17 17 17 17 17 18 19 19 19 21 23 24 26 25 26 28 25 22 27 28
18 18 17 20 27 27 22 18 18 19 24 27 24 18 15 16 17 15 13 12 13 14 15 15 16 16 16 15 15 15 14 14 15 15 15 15 16 16 16 16 15 15 14 14 13 12 12 13 13 13 14 14 15 16 16 16 18 18 19 19 19 18 18 20 23 24 25 24 25 27 25 22 25 27
17 17 19 21 25 28 26 24 22 21 23 28 29 22 17 16 17 16 14 13 13 14 15 16 16 16 15 15 14 14 13 13 13 14 14 14 14 14 14 15 15 15 15 15 15 14 14 14 13 13 13 13 14 14 14 17 19 19 20 21 19 18 18 20 21 23 24 24 24 25 24 21 23 27
19 19 20 21 22 25 27 25 23 23 25 27 28 26 21 17 16 15 14 14 14 14 15 16 16 16 16 15 14 13 12 12 12 13 12 12 13 13 14 14 14 15 16 15 15 14 13 14 15 14 11 11 13 14 15 17 18 19 20 21 18 18 18 18 19 22 24 24 24 24 24 21 22 27
21 20 21 21 21 21 21 22 24 25 26 26 26 25 23 19 15 15 16 15 15 16 16 15 16 15 14 14 14 13 13 13 13 12 12 12 12 13 14 14 15 16 17 17 17 15 14 17 19 14 9 10 13 14 15 17 18 19 20 19 17 17 18 17 19 21 22 23 24 22 23 21 21 25
21 20 21 20 17 17 18 23 26 25 25 26 26 25 24 20 17 16 16 16 16 17 16 15 15 14 14 13 14 14 14 15 14 13 13 13 14 14 14 14 14 14 15 16 16 15 16 19 17 12 9 11 13 13 13 15 17 18 20 18 15 16 17 17 18 20 21 23 23 21 22 22 20 23
22 21 20 18 16 18 21 23 23 21 21 24 26 25 22 19 18 17 16 17 17 17 16 15 14 14 14 14 14 14 13 13 13 14 14 15 15 14 13 14 14 13 13 14 14 15 19 20 16 12 11 12 13 13 13 13 13 16 18 17 14 14 16 16 18 20 21 22 22 20 21 22 20 21
21 19 20 18 17 20 21 20 19 18 17 19 22 23 20 18 18 19 18 18 18 18 17 16 15 14 14 14 14 13 12 13 13 14 15 15 14 14 14 14 14 13 13 13 12 13 14 15 16 16 14 14 15 15 14 12 11 14 16 16 14 14 15 15 17 20 21 21 21 20 21 21 19 20
20 19 20 19 18 18 18 18 18 18 18 18 19 21 21 20 20 19 19 19 19 18 18 17 16 15 15 14 13 12 13 13 14 14 14 14 14 14 13 13 13 13 13 13 13 12 11 11 16 20 19 18 18 18 16 14 12 11 13 13 13 13 14 15 16 18 19 20 21 20 20 21 20 20
22 21 21 20 19 19 18 19 19 19 19 20 19 19 21 21 20 20 20 20 19 19 19 18 17 16 15 14 13 13 13 13 13 13 14 14 14 14 13 13 13 12 13 13 13 13 12 12 13 14 15 16 16 15 15 14 11 9 10 11 12 12 13 14 16 17 17 18 19 19 19 20 20 20
24 23 22 20 20 20 19 20 22 21 21 21 20 19 20 21 22 22 21 21 20 19 20 19 18 17 15 14 14 13 13 13 12 12 12 13 13 13 13 13 12 12 13 13 13 12 12 12 12 11 11 10 9 9 9 8 8 6 6 9 10 10 11 13 15 15 16 17 18 18 18 19 20 19
23 22 22 21 22 22 22 22 23 23 22 21 20 20 20 21 22 22 21 21 21 20 19 19 19 18 16 15 14 14 13 13 13 12 12 12 12 12 11 11 12 12 13 13 13 13 13 12 12 12 11 8 5 7 7 4 8 7 4 8 10 9 10 12 13 14 16 16 17 17 17 18 19 17
25 22 22 22 22 22 22 22 22 22 22 21 20 21 20 19 20 20 21 21 22 21 19 18 18 18 17 17 16 15 14 14 13 13 13 13 12 12 11 11 12 12 11 12 14 15 14 13 12 12 10 8 6 7 7 4 5 5 5 8 8 7 8 10 12 13 14 15 16 16 16 17 18 15
25 22 21 21 21 22 22 22 22 22 22 22 21 20 19 19 19 19 19 21 21 20 20 20 19 18 17 17 18 17 16 16 15 14 14 14 14 13 13 12 12 10 10 12 13 14 14 14 13 12 12 10 6 4 4 4 5 8 11 13 11 8 6 8 10 11 13 14 15 14 15 17 17 14
24 23 22 22 21 21 21 21 22 22 22 22 21 20 19 18 18 18 18 19 19 20 21 21 21 20 19 18 18 17 17 17 17 16 16 15 15 14 14 12 11 10 11 13 14 14 14 13 10 7 6 5 2 2 3 4 9 13 14 15 14 9 4 4 7 8 9 11 12 12 13 16 16 15
25 24 24 23 22 22 21 21 21 21 21 21 21 20 20 19 18 18 19 19 19 20 20 20 20 21 20 19 18 18 18 17 17 17 17 16 16 16 15 13 11 11 11 13 14 14 13 11 8 7 7 5 4 4 5 6 9 12 9 7 7 6 3 3 6 7 7 8 9 10 11 14 14 14
26 24 24 24 22 21 21 20 20 20 21 22 21 20 19 19 19 20 20 21 21 20 19 19 20 20 20 20 19 19 19 18 17 17 17 16 16 16 15 14 14 13 14 14 15 15 14 12 11 10 10 10 9 8 7 7 9 10 9 6 5 6 4 6 9 9 9 8 9 8 9 10 11 12
23 21 21 21 21 21 20 19 19 19 21 22 21 19 19 19 20 21 20 20 21 20 18 19 20 19 19 19 19 19 19 19 19 18 18 17 17 17 15 15 15 15 15 15 15 16 16 15 13 11 10 9 9 8 9 9 9 10 10 8 3 3 6 11 13 11 9 9 9 8 6 7 8 9
21 21 18 17 17 18 18 17 17 18 20 22 21 21 20 21 21 21 21 20 20 19 19 19 19 19 18 18 18 18 18 18 18 18 18 18 18 18 17 17 16 15 14 13 14 15 16 16 15 15 13 10 8 8 9 9 10 10 9 7 5 7 12 14 12 10 8 9 10 8 5 4 7 9
18 19 18 16 15 15 15 15 15 17 19 21 22 23 23 23 22 21 22 22 22 21 20 20 19 18 18 17 17 17 17 17 17 17 17 18 18 18 18 18 17 17 16 14 14 15 15 15 16 17 15 11 9 10 11 10 11 11 9 9 9 11 13 12 8 7 8 11 10 6 2 3 6 8
Wind_Direction
221 224 224 227 230 224 221 223 224 228 232 232 237 244 251 250 248 240 229 227 218 208 203 199 197 199 196 191 201 209 222 236 242 259 263 240 253 263 272 290 295 305 320 316 312 313 311 310 310 311 314 319 320 320 319 319 318 319 319 319 320 320 322 324 325 325 326 329 331 331 332 332 332 334
218 222 224 225 226 223 220 220 222 226 229 230 240 252 248 239 240 247 253 229 211 206 199 199 200 194 190 192 200 207 222 232 235 244 253 248 246 252 269 280 276 291 318 323 320 314 308 307 306 308 313 317 319 317 316 315 315 317 318 318 319 319 321 324 324 323 325 328 329 330 331 331 331 333
218 221 225 223 222 222 218 217 220 223 227 231 238 240 235 235 234 237 257 255 205 194 189 200 204 187 185 193 199 209 224 226 230 247 253 244 239 255 275 273 257 268 290 305 321 319 309 303 301 306 312 315 317 314 313 313 314 317 318 318 319 320 322 323 322 322 324 327 328 330 331 330 330 332
220 221 222 221 219 218 215 215 218 222 226 230 231 228 225 230 229 227 241 249 201 173 182 197 194 178 182 193 204 213 218 219 233 260 248 235 241 260 277 272 258 262 271 282 314 320 310 300 298 304 310 313 314 311 310 313 316 318 319 319 320 321 323 323 322 321 323 326 328 329 331 330 329 330
218 220 219 217 214 215 216 217 219 221 223 219 218 222 222 221 221 217 223 233 210 162 172 190 181 172 183 202 216 216 212 214 232 254 230 223 241 254 270 273 260 258 264 272 306 317 309 298 296 302 308 312 312 309 310 314 318 320 320 321 321 323 324 324 322 321 323 326 328 329 330 330 329 329
214 219 222 220 215 217 220 219 217 213 212 211 210 215 217 215 216 211 213 227 219 178 171 183 178 177 196 220 223 214 213 213 223 245 237 229 244 252 264 273 256 255 263 271 300 309 303 295 296 300 307 311 310 309 311 315 318 320 322 323 324 326 327 325 323 321 322 325 328 330 330 330 329 328
218 221 223 222 218 217 216 212 211 208 207 209 209 210 212 213 214 210 208 222 226 194 176 183 189 189 202 225 225 207 207 215 227 248 247 238 250 253 255 258 248 251 255 271 301 306 294 290 297 303 310 313 310 309 312 316 319 321 323 325 327 329 328 326 323 321 322 326 328 330 331 331 331 329
223 222 219 217 212 207 206 204 206 207 204 206 209 209 209 209 212 210 205 217 229 207 178 187 206 200 193 214 225 207 199 209 222 239 242 245 256 251 248 253 251 251 254 277 299 303 295 295 300 306 312 309 304 306 310 315 320 322 324 327 328 330 328 326 324 322 323 326 329 331 333 333 333 331
221 219 214 212 204 196 198 199 201 203 201 202 207 207 204 203 205 205 202 210 217 205 189 196 208 200 190 207 219 211 209 216 224 230 227 229 245 249 251 259 260 263 270 282 291 296 298 301 299 301 306 300 292 299 308 314 317 315 321 329 331 331 330 328 325 323 324 327 330 332 334 335 335 334
217 214 210 208 201 196 198 198 198 201 198 199 203 202 201 201 199 196 198 201 199 201 208 204 194 190 194 205 211 212 219 228 236 238 227 222 234 239 240 250 261 266 268 269 275 284 292 296 292 291 297 296 285 287 305 313 309 310 326 338 337 333 331 329 327 326 326 328 331 333 334 336 336 335
212 210 208 206 202 199 199 198 198 198 194 197 200 198 199 200 192 188 191 193 194 204 212 201 189 192 198 204 211 212 212 219 234 246 246 244 245 239 238 253 269 270 265 265 274 284 287 287 285 282 291 295 280 275 305 312 298 315 336 340 339 335 331 330 330 329 328 330 333 334 335 336 337 336
208 207 207 206 203 202 201 199 197 195 190 192 195 193 195 192 183 182 189 194 197 203 206 199 194 198 198 201 210 205 196 214 230 227 232 254 264 259 257 264 268 267 267 276 287 293 290 286 285 283 291 294 277 274 304 299 275 324 335 331 335 336 332 332 332 331 333 334 335 336 337 338 338 337
206 205 206 207 205 202 202 200 196 193 190 191 192 190 188 184 180 183 191 197 200 201 201 201 199 200 200 199 204 202 198 218 229 209 213 248 264 263 268 272 270 262 263 279 292 298 293 288 289 289 293 298 289 290 305 290 274 315 320 320 330 336 334 334 335 335 337 338 339 339 339 339 339 340
203 204 204 205 204 202 201 199 195 193 192 192 192 188 183 181 182 189 195 197 200 199 199 203 202 200 203 202 203 205 207 215 218 205 217 243 257 262 268 273 272 254 250 277 294 299 298 293 292 290 292 303 303 295 303 302 296 303 308 316 329 334 334 335 336 338 340 341 340 340 340 340 340 342
201 201 200 201 202 200 200 199 196 195 194 194 191 185 182 184 187 192 195 196 200 202 202 205 205 204 208 207 204 207 209 208 213 221 232 243 256 268 274 283 286 251 230 280 294 296 298 294 290 288 286 295 297 291 300 306 300 299 305 315 326 331 332 334 336 338 341 340 339 338 338 339 339 341
199 198 197 196 196 197 198 198 198 198 198 196 191 184 184 188 192 192 192 191 197 206 209 209 204 206 212 209 205 208 207 204 208 219 231 239 248 260 269 277 284 279 276 291 291 293 298 297 292 289 287 288 290 291 299 305 308 308 305 310 321 326 328 330 333 337 339 338 337 337 336 336 336 337
198 196 195 193 191 194 196 195 196 199 200 200 197 193 192 194 196 194 192 193 193 197 210 216 207 206 213 211 208 207 203 202 209 218 230 239 245 254 265 277 284 289 292 289 286 287 293 299 298 296 298 297 293 294 296 301 309 307 299 305 317 321 324 326 329 334 337 337 337 338 336 334 333 334
200 197 195 194 191 190 192 191 190 192 197 199 199 198 197 199 200 199 197 201 199 191 198 216 212 207 210 215 211 197 190 196 210 224 239 248 254 262 276 286 283 278 273 266 267 280 292 302 305 302 303 304 301 300 299 298 298 296 298 309 314 317 325 327 327 332 335 335 338 339 338 335 333 335
203 200 197 197 193 188 188 190 188 185 185 190 192 192 193 198 204 206 205 208 208 200 197 207 212 206 201 204 202 186 184 199 213 226 247 261 271 275 277 279 275 273 266 246 243 271 291 301 307 306 308 309 308 307 305 302 302 304 311 313 311 318 328 328 329 332 331 334 341 342 339 336 336 338
204 202 198 198 196 191 189 190 189 184 180 180 182 185 189 193 201 209 211 212 210 206 205 207 207 199 193 195 195 184 183 195 205 221 246 251 254 262 268 272 273 279 277 239 230 263 286 300 307 309 312 312 309 307 306 308 316 318 316 314 315 324 328 330 334 332 329 336 344 344 343 341 341 341
204 202 199 199 197 194 192 191 188 185 180 178 181 184 188 192 195 201 209 215 215 211 211 211 211 209 202 201 203 198 197 199 197 212 244 248 250 259 268 276 281 289 293 272 250 265 284 301 309 310 313 311 306 307 311 317 321 319 317 320 326 328 328 333 334 330 333 344 346 346 347 347 348 347
204 202 201 199 197 196 196 193 189 184 179 179 183 185 186 192 196 196 200 211 216 214 213 212 214 216 213 211 214 217 220 220 219 228 242 253 264 268 272 284 291 293 293 279 252 272 292 303 311 314 314 311 309 313 319 322 321 320 320 325 330 330 331 335 333 331 340 347 346 347 348 348 354 354
202 203 201 197 198 202 200 194 190 186 181 179 186 188 188 193 199 197 193 197 208 212 212 213 215 219 222 225 228 232 234 233 233 236 239 250 262 264 270 281 286 289 292 277 243 297 301 306 313 315 314 313 315 319 322 323 322 321 322 327 330 331 334 336 333 334 344 347 346 348 346 348 359 358
201 203 199 196 200 204 198 192 193 191 186 181 185 191 195 198 201 199 195 194 200 205 207 210 214 219 224 231 232 234 236 236 237 237 236 240 248 255 265 270 271 280 286 289 336 314 307 306 310 312 312 309 310 315 321 322 321 322 326 330 332 333 336 336 332 336 345 347 347 348 344 351 3 359
200 201 196 195 198 199 193 189 193 196 193 188 187 197 205 205 201 198 197 193 193 199 202 204 211 216 219 223 225 225 228 232 235 237 237 238 239 244 253 259 265 273 275 280 324 323 311 303 304 309 309 307 309 315 318 319 319 323 329 332 332 333 336 335 332 339 347 347 347 346 343 355 5 1
200 200 197 194 196 196 191 187 190 197 198 195 194 204 212 209 201 196 195 190 190 198 203 203 209 214 216 219 221 220 223 225 225 227 232 235 236 238 243 249 257 265 268 280 302 310 302 295 297 303 307 310 313 314 315 317 320 325 331 332 332 333 335 334 335 343 348 347 346 344 342 355 4 358
199 197 192 190 193 192 188 188 195 202 203 198 198 204 212 211 203 197 197 196 194 201 209 209 210 214 217 220 221 220 223 225 222 221 224 228 231 235 239 242 249 257 264 273 284 288 285 285 291 299 304 309 311 312 315 318 319 324 330 331 330 333 336 337 338 343 347 347 346 343 342 355 3 356
195 191 187 185 190 193 195 200 205 208 205 200 200 203 208 209 204 200 204 208 204 205 211 214 215 217 219 221 222 223 225 226 225 223 224 227 229 233 240 244 247 253 259 266 271 273 275 280 285 289 293 298 303 307 313 315 317 325 329 325 327 334 337 338 339 342 346 347 344 341 345 357 4 357
189 187 185 183 187 195 200 201 203 205 204 201 202 206 209 209 206 205 211 216 215 213 214 215 217 220 221 221 223 226 228 230 229 225 223 226 229 233 243 248 249 252 255 258 261 263 267 268 265 267 279 291 296 302 309 313 316 321 318 316 324 333 334 338 340 341 346 346 340 340 348 357 3 0
180 181 183 185 189 195 196 196 199 203 202 199 201 208 213 213 211 211 215 217 218 220 219 218 219 221 221 222 223 225 229 231 230 226 222 226 231 235 242 247 249 251 250 249 250 252 255 257 258 265 287 293 288 293 304 311 314 313 310 316 330 335 332 338 342 341 345 343 339 342 348 352 1 2
179 179 183 190 198 201 197 198 201 203 202 201 204 209 213 215 216 218 219 218 220 223 223 221 223 223 223 224 224 224 226 227 226 225 226 233 239 240 241 245 248 251 249 246 243 241 244 252 261 274 288 282 280 285 292 301 310 310 310 321 334 332 330 338 342 341 343 341 338 343 347 347 355 1
183 185 186 188 195 197 195 197 199 200 200 204 208 210 211 215 217 220 221 221 223 226 224 224 226 223 222 225 225 222 221 220 222 226 229 235 241 241 241 244 248 252 254 251 245 243 244 244 245 248 251 254 265 274 277 287 299 300 305 321 334 329 330 340 341 337 339 339 338 345 347 345 351 3
178 181 182 180 183 186 188 191 194 195 195 199 205 207 209 213 215 216 219 220 221 222 223 224 226 223 223 225 222 218 220 222 225 229 230 231 236 236 239 245 248 251 257 257 254 258 254 236 226 234 246 248 251 258 262 272 286 293 304 322 330 326 332 342 339 334 336 338 340 345 346 343 349 5
172 173 179 181 182 183 185 189 193 195 195 197 201 204 206 209 212 212 215 217 218 220 221 223 225 224 224 224 219 219 225 228 231 233 230 230 233 233 235 242 246 249 256 259 259 264 264 241 225 228 237 242 246 252 255 260 274 291 305 318 324 325 334 340 335 333 335 337 340 344 345 342 348 4
179 177 180 183 185 187 189 191 192 195 198 200 202 201 202 206 210 211 213 215 216 217 218 221 223 222 222 223 223 226 230 231 233 232 227 226 231 233 236 243 248 250 253 256 256 258 264 265 252 241 241 245 252 262 261 253 257 281 301 314 320 325 334 335 332 333 336 337 340 343 342 342 347 0
184 181 183 187 188 190 194 194 195 199 202 202 201 199 198 202 207 211 213 214 215 216 216 216 218 220 220 222 226 229 231 231 234 235 230 227 228 230 234 241 248 255 257 258 262 263 265 272 276 275 275 271 275 292 288 249 225 247 294 318 321 323 332 333 332 336 338 339 341 340 338 342 346 356
186 184 189 193 192 193 197 198 197 200 202 200 199 200 202 204 207 211 213 213 214 217 216 212 211 215 220 224 226 227 227 229 232 235 237 237 235 233 237 241 244 249 253 257 264 267 266 268 269 269 276 281 284 298 298 231 186 197 261 318 321 322 328 331 335 340 339 339 342 339 337 343 345 351
188 191 195 196 194 196 200 199 197 198 200 201 201 204 206 206 207 209 211 213 214 216 213 209 210 213 217 220 222 223 224 226 229 231 233 237 240 241 244 247 248 249 250 254 259 259 256 257 259 261 268 275 276 286 294 268 206 216 279 308 310 311 320 328 337 343 339 340 341 338 338 344 343 347
193 198 200 200 198 198 200 200 199 198 199 201 202 203 204 206 208 208 210 212 214 213 211 212 215 217 218 218 218 220 221 223 226 229 230 233 236 239 242 245 247 249 253 257 260 260 257 256 257 262 270 274 275 290 306 307 303 296 290 286 282 282 302 327 340 344 341 342 340 337 343 348 344 348
197 201 204 204 202 202 202 201 201 201 200 200 201 202 204 206 207 209 211 213 214 216 218 220 220 218 217 218 217 218 221 222 224 228 230 231 232 236 241 244 242 244 252 258 259 258 259 260 260 266 281 300 343 2 337 315 304 293 278 265 261 259 268 335 349 344 340 339 334 335 347 352 348 351
199 204 207 206 205 205 204 203 203 203 200 199 200 205 208 209 211 216 219 220 220 221 223 224 221 217 217 218 217 217 221 224 226 228 230 230 231 233 235 237 239 243 250 256 258 256 256 259 263 270 283 294 297 299 302 294 289 290 283 258 241 233 236 335 340 327 320 325 327 330 343 350 351 356
200 206 209 208 207 206 205 204 204 202 200 201 203 208 211 214 219 224 224 224 226 227 225 223 221 218 217 218 217 217 221 225 228 229 229 230 232 231 226 224 231 241 246 249 254 255 256 259 261 264 272 274 268 269 275 271 272 288 298 280 227 209 238 308 317 309 301 306 313 320 334 344 352 360
201 206 208 207 207 206 206 206 204 201 201 204 208 211 212 216 223 227 225 225 228 228 226 224 222 219 217 217 216 218 222 224 226 227 228 229 231 231 227 223 228 237 241 242 248 253 254 255 255 248 246 250 247 245 252 258 262 275 285 282 241 212 270 289 290 287 289 297 298 295 307 336 358 9
201 205 206 204 203 204 205 205 202 201 204 209 214 217 218 219 223 225 224 228 231 229 225 224 221 219 219 218 218 220 222 224 226 226 226 228 230 229 229 231 234 237 238 240 248 252 249 250 254 255 250 242 234 237 248 258 261 266 278 298 312 298 287 277 258 242 258 285 285 275 278 328 5 18
198 202 205 208 208 205 203 202 201 203 210 216 221 223 223 222 223 220 217 221 227 228 226 223 219 218 220 220 218 220 223 224 227 227 226 228 229 227 227 231 235 236 237 239 244 247 246 243 245 250 249 240 236 246 254 257 262 270 281 289 285 284 288 285 260 239 262 272 261 244 256 343 2 10